Weather History for Columbia, MO

Change the Weather History Date:

Tuesday, March 25, 2014

  Actual Average Record
Temperature  
Mean Temperature 33 °F 48 °F  
Max Temperature 40 °F 59 °F 90 °F (1907)
Min Temperature 25 °F 37 °F 8 °F (1955)
Degree Days  
Heating Degree Days 32 17  
Month to date heating degree days 627 538  
Since 1 July heating degree days 5056 4484  
Cooling Degree Days 0 0  
Month to date cooling degree days 0 0  
Year to date cooling degree days 0 0  
Moisture  
Dew Point 17 °F    
Average Humidity 60    
Maximum Humidity 92    
Minimum Humidity 27    
Precipitation  
Precipitation T in 0.10 in 1.73 in (1920)
Month to date precipitation 0.57 2.26  
Year to date precipitation 2.83 6.43  
Snow  
Snow T in 0.00 in 5.60 in (1978)
Month to date snowfall 0.5 1.5  
Since 1 July snowfall 17.8 17.6  
Snow Depth 0.00 in    
Sea Level Pressure  
Sea Level Pressure 30.26 in    
Wind  
Wind Speed 11 mph (NW)    
Max Wind Speed 29 mph    
Max Gust Speed 34 mph    
Visibility 10 miles    
Events      
T = Trace of Precipitation, MM = Missing Value Source: NWS Daily Summary

Daily Weather History Graph

Daily Weather History Graph

Search for Another Location

Airport:

Trip Planner

Search our weather history database for the weather conditions in past years. The results will help you decide how hot, cold, wet, or windy it might be!

Date:

Astronomy

Mar. 25, 2014 Rise Set
Actual Time 7:04 AM CDT 7:25 PM CDT
Civil Twilight 6:37 AM CDT 7:52 PM CDT
Nautical Twilight 6:06 AM CDT 8:23 PM CDT
Astronomical Twilight 5:34 AM CDT 8:55 PM CDT
Moon 3:23 AM CDT (3/25) 1:59 PM CDT (3/25)
Length of Visible Light 13h 14m
Length of Day
12h 21m
Waning Crescent, 32% of the Moon is Illuminated
Mar 25
Waning Crescent
Mar 30
New
Apr 7
First Quarter
Apr 15
Full
Apr 22
Last Quarter

Hourly Weather History & Observations

Time (CDT) Temp. Windchill Dew Point Humidity Pressure Visibility Wind Dir Wind Speed Gust Speed Precip Events Conditions
12:05 AM 35.1 °F 27.9 °F 30.0 °F 82% 30.18 in 10.0 mi WNW 9.2 mph - N/A   Overcast
12:54 AM 33.1 °F 23.9 °F 27.0 °F 78% 30.20 in 10.0 mi NW 12.7 mph 24.2 mph N/A   Mostly Cloudy
1:33 AM 32.0 °F 23.6 °F 27.0 °F 82% 30.18 in 10.0 mi NW 10.4 mph - N/A   Scattered Clouds
1:54 AM 32.0 °F 23.6 °F 27.0 °F 82% 30.21 in 10.0 mi WNW 10.4 mph - N/A   Mostly Cloudy
2:07 AM 32.0 °F 23.0 °F 27.0 °F 82% 30.18 in 10.0 mi WNW 11.5 mph - N/A   Overcast
2:45 AM 32.0 °F 24.2 °F 27.0 °F 82% 30.18 in 10.0 mi NW 9.2 mph - 0.00 in   Overcast
2:54 AM 32.0 °F 23.6 °F 27.0 °F 82% 30.20 in 10.0 mi NW 10.4 mph - 0.00 in   Overcast
3:26 AM 30.9 °F 22.2 °F 26.1 °F 82% 30.18 in 10.0 mi NW 10.4 mph - N/A   Scattered Clouds
3:54 AM 30.0 °F 22.4 °F 26.1 °F 85% 30.20 in 9.0 mi WNW 8.1 mph - N/A   Clear
4:54 AM 28.0 °F 20.0 °F 25.0 °F 88% 30.21 in 8.0 mi WNW 8.1 mph - N/A   Clear
5:54 AM 27.0 °F 18.7 °F 24.1 °F 89% 30.23 in 8.0 mi WNW 8.1 mph - N/A   Scattered Clouds
6:54 AM 28.0 °F 20.0 °F 24.1 °F 85% 30.25 in 9.0 mi NW 8.1 mph - N/A   Overcast
7:54 AM 28.9 °F 19.2 °F 19.9 °F 69% 30.28 in 10.0 mi WNW 11.5 mph - N/A   Overcast
8:54 AM 30.9 °F 18.4 °F 19.0 °F 61% 30.29 in 10.0 mi NNW 20.7 mph 25.3 mph N/A   Clear
9:54 AM 34.0 °F 23.8 °F 16.0 °F 48% 30.31 in 10.0 mi NW 16.1 mph 27.6 mph N/A   Partly Cloudy
10:54 AM 36.0 °F 25.0 °F 12.0 °F 37% 30.32 in 10.0 mi NW 20.7 mph 33.4 mph N/A   Scattered Clouds
11:54 AM 37.0 °F 26.4 °F 10.9 °F 34% 30.32 in 10.0 mi NW 20.7 mph 29.9 mph N/A   Scattered Clouds
12:54 PM 39.0 °F 29.3 °F 10.9 °F 32% 30.32 in 10.0 mi NW 19.6 mph 31.1 mph N/A   Mostly Cloudy
1:54 PM 39.0 °F 29.3 °F 10.9 °F 32% 30.31 in 10.0 mi NW 19.6 mph 31.1 mph N/A   Partly Cloudy
2:54 PM 39.9 °F 31.8 °F 10.0 °F 29% 30.30 in 10.0 mi WNW 15.0 mph - N/A   Clear
3:54 PM 39.0 °F 29.6 °F 9.0 °F 29% 30.29 in 10.0 mi NW 18.4 mph 24.2 mph N/A   Partly Cloudy
4:54 PM 39.0 °F 31.0 °F 8.1 °F 28% 30.28 in 10.0 mi NW 13.8 mph 23.0 mph N/A   Clear
5:54 PM 37.9 °F 28.9 °F 7.0 °F 28% 30.28 in 10.0 mi NW 16.1 mph 31.1 mph N/A   Clear
6:54 PM 36.0 °F 28.0 °F 8.1 °F 31% 30.28 in 10.0 mi NW 11.5 mph - N/A   Clear
7:54 PM 32.0 °F 25.6 °F 8.1 °F 37% 30.27 in 10.0 mi NW 6.9 mph - N/A   Clear
8:54 PM 32.0 °F 27.5 °F 7.0 °F 35% 30.28 in 10.0 mi North 4.6 mph - N/A   Clear
9:54 PM 30.9 °F - 7.0 °F 37% 30.29 in 10.0 mi Calm Calm - N/A   Clear
10:54 PM 28.9 °F - 8.1 °F 41% 30.29 in 10.0 mi Calm Calm - N/A   Clear
11:54 PM 28.9 °F - 7.0 °F 40% 30.29 in 10.0 mi Calm Calm - N/A   Clear